FENGYUN 1C DEB, 32209

Orbit data source: Space-Track

FENGYUN 1C DEB, 32209 is space debris in SSO originally from a launch on Mon, 10 May 1999 UTC launched from the Taiyaun Space Center, China (TSC). Fengyun 1C debris stems from the Chinese weather satellite Fengyun-1C, which was intentionally destroyed by a Chinese anti-satellite missile in 2007. This event dramatically increased the amount of space debris, with thousands of trackable fragments posing hazards to satellites and human spaceflight. The Fengyun 1C debris cloud has become a focal point in discussions about space sustainability and the need for international regulations to prevent the creation of new debris.

Loading next visibility...
Identifier
32209, 1999-025CVF
Orbit
SSO
Country
Flag of CNCN / PRC
Related business
Manufacturer
Unknown
Mission
Spacecraft
Bus & Motor
Unknown
Mass
Unknown
Launch date (UTC)
1999-05-10 (27 years ago)
Launch vehicle
Unknown
Launch site
Taiyaun Space Center, China (TSC)
Object type
Payload
Rocket body
Debris
Shape & HBR
Unknown shape, 0.1 m
Radar Cross Section
Small (<0.1 m²)

Expand to show TLE details & history
Last TLE update: 1 day ago

TLE from 1 day ago
0 FENGYUN 1C DEB
1 32209U 99025CVF 26255.78515102  .00001213  00000-0  14519-2 0  9999
2 32209  99.4299 192.9835 0332147  60.3069 303.0695 13.47879029936678
Epoch: 2026-09-12T18:50Z
TLE epoch observation values (Epoch: 2026-09-12T18:50:37.048Z)
Latitude
-0.00001°
Longitude
-81.46004°
Altitude
953.607 km
Speed
7.439 km/s
True Right ascension
12h 51m 56s
True Declination
0° 00' 00"
Sunlit
Object was in daylight at epoch
Visualization orbit readout
Latitude
Unknown
Longitude
Unknown
Altitude
Unknown
Speed
Unknown
Apparent Right ascension
Unknown
Apparent Declination
Unknown
Sunlit
N/A
Visualization observer readout
Local Sidereal Time
11:33:08
Azimuth
Unknown
Elevation
Unknown
Doppler factor
Unknown
Orbital elements
Apogee altitude
1,324.99 km
Perigee altitude
829.726 km
Semi-major axis
7,455.495 km
Eccentricity
0.03321
Inclination
99.4299°
RAAN
192.9835°
Arg. of periapsis
60.3069°
True anomaly
299.80784°
Mean anomaly
303.0695°
Eccentric anomaly
301.44594°
Mean motion
3.37154 °/min
Orbital period
106.78 mins
BSTAR
0.0014519
Loading maneuver chart data...
Computing Atmospheric mass density...
Loading historical data...
Loading historical data...
Loading historical data...
Loading historical data...
Loading historical data...
Loading historical data...
Loading historical data...

Documentation

Showing up to 5 results
|